Location: Marse
(42.1502°N, 110.9866°W)
Time: 06:24:40
(UTC+00:00)

QB50P2 - Pass Details

Date: 06 July 2022
Orbit: 590 x 605 km, 97.9° (Epoch: 15 August)

Event Time Altitude Azimuth Distance (km) Brightness Sun altitude
Rises 09:01:42 0° 9° (N) 2,864 ? -21.7°
Reaches altitude 10° 09:03:53 10° 7° (N) 1,958 ? -21.6°
Maximum altitude 09:08:07 67° 285° (WNW) 659 ? -21.2°
Enters shadow 09:08:44 57° 238° (WSW) 712 ? -21.2°
